Location: Newark
(44.6303°N, 123.0961°W)
Time: 12:58:21
(UTC+00:00)

Envisat - Pass Details

Date: 01 February 2020
Orbit: 764 x 766 km, 98.1° (Epoch: 24 February)

Event Time Altitude Azimuth Distance (km) Brightness Sun altitude
Rises 03:05:54 0° 203° (SSW) 3,220 6.6 -19.1°
Reaches altitude 10° 03:08:42 10° 219° (SW) 2,299 6.1 -19.6°
Maximum altitude 03:12:32 21° 268° (W) 1,654 5.6 -20.2°
Drops below altitude 10° 03:16:24 10° 318° (NW) 2,311 6.0 -20.9°
Sets 03:19:15 0° 334° (NNW) 3,243 6.5 -21.4°
